Regional Weather Roundup
Issued by NWS

Home | Current Version | Previous Version | Graphics & Text | Print | Product List | Glossary On
Versions: 1 2 3 4 5 6 7 8 9 10 11 12 13 14 15 16 17 18 19 20 21 22 23 24 25 26 27 28 29 30 31 32 33 34 35 36 37 38 39 40 41 42 43 44 45 46 47 48 49 50
130
ASUS43 KOAX 241402
RWRNE

WEATHER ROUNDUP FOR NEBRASKA
NATIONAL WEATHER SERVICE OMAHA NE
900 AM CDT WED MAY 24 2017

NOTES: SATELLITE DATA IS BEING USED TO AUGMENT CLOUD COVER ABOVE
       12000 FEET.
       "FAIR" INDICATES FEW OR NO CLOUDS BELOW 12,000 FEET WITH NO
       SIGNIFICANT WEATHER AND/OR OBSTRUCTIONS TO VISIBILITY.

  * THESE STATIONS DO NOT REPORT WEATHER SUCH AS RAIN...SNOW OR FOG.

NEZ001>004-019>022-054>056-241500-
NEBRASKA PANHANDLE

CITY           SKY/WX    TMP DP  RH WIND       PRES   REMARKS
SCOTTSBLUFF    SUNNY     48  39  71 E13       29.77F
ALLIANCE       SUNNY     49  39  68 S14       29.78F
CHADRON        SUNNY     52  38  58 S13       29.74F
GORDON         FAIR      48  38  69 S8        29.79F
KIMBALL        SUNNY     52  38  59 SW10      29.81F
SIDNEY         SUNNY     49  39  68 S10       29.82F
$$

NEZ057>060-069>072-079>082-241500-
SOUTHWEST NEBRASKA

CITY           SKY/WX    TMP DP  RH WIND       PRES   REMARKS
NORTH PLATTE   SUNNY     48  42  80 W7        29.86F
IMPERIAL       SUNNY     49  38  65 S5        29.85F
LEXINGTON      SUNNY     48  42  80 W8        29.86S
MCCOOK         SUNNY     48  40  73 W5        29.87F
OGALLALA       SUNNY     47  41  77 CALM      29.85F
$$

NEZ005>010-023>029-035>040-094-241500-
NORTH CENTRAL NEBRASKA

CITY           SKY/WX    TMP DP  RH WIND       PRES   REMARKS
VALENTINE      SUNNY     47  38  71 VRB3      29.81F
AINSWORTH      SUNNY     47  42  80 CALM      29.83S
BROKEN BOW     SUNNY     49  41  74 N6        29.83F
O`NEILL        SUNNY     50  43  76 N5        29.83S
ORD            SUNNY     50  42  74 NW6       29.82F
$$

NEZ041-046>049-061>064-073>077-083>087-241500-
SOUTH CENTRAL NEBRASKA

CITY           SKY/WX    TMP DP  RH WIND       PRES   REMARKS
GRAND ISLAND   SUNNY     51  43  74 N14       29.83F
AURORA         SUNNY     52  45  76 N12       29.82F
HASTINGS       SUNNY     51  43  74 N10       29.84S
HEBRON         SUNNY     53  46  76 N8        29.82F
HOLDREGE       SUNNY     48  42  77 NW6       29.85S
KEARNEY *      SUNNY     52  39  62 N7        29.85S
$$

NEZ011>018-030>034-042>045-241500-
NORTHEAST NEBRASKA

CITY           SKY/WX    TMP DP  RH WIND       PRES   REMARKS
NORFOLK        MOSUNNY   51  45  79 NW9       29.80F
ALBION         SUNNY     53  44  73 N9        29.82F
BLAIR          PTSUNNY   52  47  84 N13       29.78S
FREMONT        SUNNY     54  48  81 N6        29.79F
TEKAMAH        MOSUNNY   53  48  83 N12       29.78F
WAYNE          CLOUDY    49  48  99 NW8       29.81S
$$

NEZ050>053-065>068-078-088>093-241500-
SOUTHEAST NEBRASKA

CITY           SKY/WX    TMP DP  RH WIND       PRES   REMARKS
LINCOLN        SUNNY     55  47  74 N12       29.80F
OMAHA EPPLEY   PTSUNNY   54  47  77 N15       29.77S
FALLS CITY     CLOUDY    53  48  83 NW10      29.74S
NEBRASKA CITY  PTSUNNY   55  46  72 N14       29.77S
$$

NEZ044-045-051>053-067-241500-
OMAHA AREA

CITY           SKY/WX    TMP DP  RH WIND       PRES   REMARKS
OMAHA EPPLEY   PTSUNNY   54  47  77 N15       29.77S
BLAIR          PTSUNNY   52  47  84 N13       29.78S
FREMONT        SUNNY     54  48  81 N6        29.79F
MILLARD        CLOUDY    54  48  80 N7G16     29.78S
OFFUTT AFB     SUNNY     55  47  75 N9        29.76S
WAHOO          FAIR      53  48  83 N10       29.79S
$$




USA.gov is the U.S. government's official web portal to all federal, state and local government web resources and services.